Weather in Yelizavetinka

Russia / Omsk Oblast     54°15′29″N   74°40′45″E
temp.,
°C
wind,
m/s
gust,
m/s
humid.,
%
clouds,
%
prec.,
mm/h
press.,
hPa
HPBL,
m
15 april, thu
thu1500:00+3w3598100 0.0 102984
03:00+3w3598100 0.1 102868
06:00+3wsw3599100 0.2 102873
09:00+3wsw48100100 0.1 1027143
12:00+5w48100100 0.1 1026187
15:00+7w4899100 0.0 1025217
18:00+8w479644 0.0 1024190
21:00+4wsw359635 0.0 102364
16 april, fri
fri1600:00+4w45897 0.0 102165
03:00+4wsw468556 0.0 102077
06:00+4wsw48875 0.0 1019106
09:00+8wsw512785 0.0 1018294
12:00+13w6105627 0.0 1017508
15:00+15wnw68575 0.0 1016989
18:00+8n81283100 0.0 1019576
21:00+5nne61081100 0.1 1022797
17 april, sat
sat1700:00+3nne49845 0.1 1023455
03:00+1ne510835 0.0 1024421
06:00−1ne47855 0.0 1025305
09:00+1ne33695 0.0 1025555
12:00+4nw34515 0.0 10241226
15:00+6nw45425 0.0 10241549
18:00+6nnw56395 0.0 10231606
21:00+4nne115528 0.0 102310
18 april, sun
sun1800:00+3ssw3461100 0.0 102363
03:00+2ssw3771100 0.0 1021137
06:00+1ssw41074100 0.0 1019203
09:00+4ssw61163100 0.0 1016442
12:00+8sw7956100 0.0 10131116
15:00+11wsw91341100 0.0 10082327
18:00+9w91657100 0.4 10072001
21:00+4wnw91469100 0.1 10091318
19 april, mon
mon1900:00−3nw10146794 0.1 10131270
03:00−5nw10146398 0.1 10161289
06:00−5nw91366100 0.1 1019963
09:00−4nnw91156100 0.0 10221009
12:00−2nnw8943100 0.0 10231489
15:000nnw7836100 0.0 10242039
18:00−1nnw6740100 0.0 10261782
21:00−3nnw48545 0.0 1027374